WZZ43KR ENGM-EPSC

Flight info

Callsign WZZ43KR
Flight time 1h 11m
Altitude 37000
Route VIPPA DCT ESOSI DCT SONAL M602 USEDU P45 FARCU
Aircraft A321/M-SDE1E2E3FGIJ1J4RWXY/LB1

Departure

Time 2026-05-07 14:52
Airport Oslo-Gardermoen International Airport (ENGM)

Arrival

Time 2026-05-07 16:03
Airport Solidarity Szczecin–Goleniów Airport (EPSC)
Time Latitude Longitude Altitude Speed Heading
2026-05-07 12:59 60.19679 11.10226 682 ft 0 kts 286°
2026-05-07 14:46 60.19681 11.10223 683 ft 1 kts 299°
2026-05-07 14:46 60.19688 11.10225 684 ft 2 kts
2026-05-07 14:46 60.19710 11.10265 679 ft 7 kts 46°
2026-05-07 14:46 60.19754 11.10383 685 ft 14 kts 55°
2026-05-07 14:47 60.19837 11.10543 682 ft 19 kts 25°
2026-05-07 14:47 60.19952 11.10576 683 ft 15 kts 326°
2026-05-07 14:47 60.19993 11.10383 685 ft 16 kts 286°
2026-05-07 14:47 60.20028 11.10135 684 ft 23 kts 285°
2026-05-07 14:48 60.20081 11.09764 684 ft 29 kts 286°
2026-05-07 14:48 60.20137 11.09376 681 ft 29 kts 286°
2026-05-07 14:48 60.20195 11.08979 680 ft 30 kts 288°
2026-05-07 14:48 60.20224 11.08797 680 ft 0 kts 287°
2026-05-07 14:49 60.20224 11.08794 680 ft 0 kts 287°
2026-05-07 14:49 60.20225 11.08786 680 ft 1 kts 284°
2026-05-07 14:49 60.20230 11.08754 680 ft 5 kts 286°
2026-05-07 14:49 60.20245 11.08645 677 ft 8 kts 286°
2026-05-07 14:50 60.20247 11.08630 675 ft 0 kts 286°
2026-05-07 14:50 60.20250 11.08616 677 ft 3 kts 286°
2026-05-07 14:51 60.20259 11.08547 675 ft 7 kts 286°
2026-05-07 14:51 60.20275 11.08436 677 ft 7 kts 285°
2026-05-07 14:51 60.20259 11.08386 675 ft 4 kts 186°
2026-05-07 14:51 60.20213 11.08362 677 ft 13 kts 196°
2026-05-07 14:52 60.19855 11.08157 675 ft 93 kts 196°
2026-05-07 14:52 60.19007 11.07671 674 ft 158 kts 195°
2026-05-07 14:52 60.17927 11.07047 1320 ft 160 kts 200°
2026-05-07 14:52 60.16888 11.06236 2129 ft 159 kts 213°
2026-05-07 14:53 60.15973 11.04969 2767 ft 162 kts 203°
2026-05-07 14:53 60.14860 11.04848 3382 ft 165 kts 167°
2026-05-07 14:53 60.13725 11.05003 3997 ft 169 kts 195°
2026-05-07 14:53 60.12546 11.04222 4374 ft 189 kts 199°
2026-05-07 14:54 60.11173 11.03843 4668 ft 213 kts 174°
2026-05-07 14:54 60.09622 11.04438 4927 ft 241 kts 169°
2026-05-07 14:54 60.07905 11.05166 5348 ft 262 kts 169°
2026-05-07 14:54 60.06094 11.05930 6107 ft 269 kts 168°
2026-05-07 14:55 60.04252 11.06709 6957 ft 272 kts 169°
2026-05-07 14:55 60.02384 11.07485 7781 ft 277 kts 169°
2026-05-07 14:55 60.00485 11.08272 8601 ft 281 kts 170°
2026-05-07 14:55 59.98552 11.09068 9406 ft 286 kts 171°
2026-05-07 14:56 59.96589 11.09875 10207 ft 290 kts 171°
2026-05-07 14:56 59.94537 11.10717 10515 ft 313 kts 171°
2026-05-07 14:56 59.92328 11.11614 10764 ft 333 kts 171°
2026-05-07 14:56 59.90030 11.12560 11341 ft 340 kts 171°
2026-05-07 14:57 59.87733 11.13504 12034 ft 344 kts 171°
2026-05-07 14:57 59.85380 11.14465 12751 ft 347 kts 171°
2026-05-07 14:57 59.83006 11.15433 13472 ft 350 kts 171°
2026-05-07 14:57 59.80612 11.16414 14146 ft 353 kts 172°
2026-05-07 14:58 59.78192 11.17410 14763 ft 357 kts 172°
2026-05-07 14:58 59.75745 11.18409 15363 ft 361 kts 172°
2026-05-07 14:58 59.73273 11.19408 15965 ft 365 kts 173°
2026-05-07 14:58 59.70769 11.20405 16563 ft 369 kts 173°
2026-05-07 14:59 59.68239 11.21419 17120 ft 374 kts 173°
2026-05-07 14:59 59.65677 11.22466 17694 ft 378 kts 173°
2026-05-07 14:59 59.63089 11.23512 18292 ft 381 kts 173°
2026-05-07 14:59 59.60479 11.24568 18820 ft 385 kts 173°
2026-05-07 15:00 59.57840 11.25641 19344 ft 389 kts 173°
2026-05-07 15:00 59.55172 11.26691 19876 ft 392 kts 174°
2026-05-07 15:00 59.52486 11.27759 20403 ft 396 kts 173°
2026-05-07 15:00 59.49772 11.28856 20944 ft 400 kts 174°
2026-05-07 15:01 59.47032 11.29954 21478 ft 403 kts 174°
2026-05-07 15:01 59.44270 11.31057 22012 ft 407 kts 174°
2026-05-07 15:01 59.41485 11.32157 22527 ft 410 kts 174°
2026-05-07 15:01 59.38674 11.33265 22989 ft 414 kts 174°
2026-05-07 15:02 59.35842 11.34401 23507 ft 416 kts 174°
2026-05-07 15:02 59.32992 11.35522 23945 ft 419 kts 174°
2026-05-07 15:02 59.30119 11.36641 24348 ft 422 kts 174°
2026-05-07 15:02 59.27233 11.37768 24745 ft 425 kts 174°
2026-05-07 15:03 59.24327 11.38926 25117 ft 427 kts 174°
2026-05-07 15:03 59.21402 11.40080 25507 ft 430 kts 174°
2026-05-07 15:03 59.18458 11.41230 25877 ft 433 kts 174°
2026-05-07 15:03 59.15500 11.42384 26245 ft 435 kts 174°
2026-05-07 15:04 59.12520 11.43554 26611 ft 438 kts 174°
2026-05-07 15:04 59.09528 11.44716 26942 ft 440 kts 174°
2026-05-07 15:04 59.06516 11.45883 27323 ft 442 kts 174°
2026-05-07 15:04 59.03496 11.47062 27696 ft 444 kts 174°
2026-05-07 15:05 59.00456 11.48256 28038 ft 447 kts 174°
2026-05-07 15:05 58.97403 11.49440 28363 ft 449 kts 174°
2026-05-07 15:05 58.94327 11.50624 28688 ft 452 kts 174°
2026-05-07 15:05 58.91235 11.51826 28996 ft 454 kts 174°
2026-05-07 15:06 58.88125 11.53013 29294 ft 457 kts 174°
2026-05-07 15:06 58.85004 11.54221 29591 ft 459 kts 174°
2026-05-07 15:06 58.81908 11.55399 29869 ft 461 kts 174°
2026-05-07 15:06 58.78751 11.56606 30116 ft 463 kts 174°
2026-05-07 15:07 58.75585 11.57803 30371 ft 465 kts 174°
2026-05-07 15:07 58.72405 11.59021 30623 ft 467 kts 174°
2026-05-07 15:07 58.69213 11.60236 30863 ft 469 kts 174°
2026-05-07 15:07 58.66013 11.61455 31100 ft 470 kts 174°
2026-05-07 15:08 58.62797 11.62678 31356 ft 471 kts 174°
2026-05-07 15:08 58.59587 11.63905 31681 ft 470 kts 174°
2026-05-07 15:08 58.56383 11.65113 31991 ft 469 kts 174°
2026-05-07 15:08 58.53179 11.66312 32291 ft 469 kts 174°
2026-05-07 15:09 58.49977 11.67522 32599 ft 469 kts 173°
2026-05-07 15:09 58.46784 11.68725 32906 ft 468 kts 173°
2026-05-07 15:09 58.43591 11.69925 33224 ft 467 kts 173°
2026-05-07 15:09 58.40402 11.71122 33527 ft 467 kts 173°
2026-05-07 15:10 58.37215 11.72315 33829 ft 466 kts 173°
2026-05-07 15:10 58.34032 11.73495 34119 ft 466 kts 173°
2026-05-07 15:10 58.30846 11.74675 34353 ft 466 kts 173°
2026-05-07 15:10 58.27670 11.75858 34596 ft 465 kts 173°
2026-05-07 15:11 58.24501 11.77035 34875 ft 464 kts 173°
2026-05-07 15:11 58.21334 11.78197 35135 ft 463 kts 173°
2026-05-07 15:11 58.18180 11.79366 35389 ft 462 kts 173°
2026-05-07 15:11 58.15030 11.80535 35632 ft 461 kts 173°
2026-05-07 15:12 58.11888 11.81693 35890 ft 459 kts 173°
2026-05-07 15:12 58.08751 11.82840 36141 ft 458 kts 173°
2026-05-07 15:12 58.05667 11.83971 36377 ft 457 kts 173°
2026-05-07 15:12 58.02547 11.85119 36614 ft 456 kts 173°
2026-05-07 15:13 57.99437 11.86250 36855 ft 455 kts 173°
2026-05-07 15:13 57.96331 11.87388 37055 ft 454 kts 173°
2026-05-07 15:13 57.90136 11.89649 37100 ft 452 kts 173°
2026-05-07 15:14 57.83958 11.91888 37109 ft 452 kts 173°
2026-05-07 15:14 57.77786 11.94127 37111 ft 452 kts 173°
2026-05-07 15:15 57.71615 11.96350 37110 ft 452 kts 173°
2026-05-07 15:15 57.65441 11.98573 37125 ft 452 kts 173°
2026-05-07 15:16 57.59257 12.00768 37117 ft 453 kts 172°
2026-05-07 15:16 57.53067 12.02989 37135 ft 453 kts 172°
2026-05-07 15:17 57.46876 12.05190 37142 ft 453 kts 172°
2026-05-07 15:17 57.40673 12.07386 37129 ft 454 kts 172°
2026-05-07 15:18 57.34510 12.09572 37137 ft 454 kts 172°
2026-05-07 15:18 57.28300 12.11753 37137 ft 454 kts 172°
2026-05-07 15:19 57.22090 12.13918 37144 ft 454 kts 172°
2026-05-07 15:19 57.15875 12.16091 37146 ft 455 kts 172°
2026-05-07 15:20 57.09658 12.18260 37147 ft 455 kts 172°
2026-05-07 15:20 57.03443 12.20422 37137 ft 455 kts 172°
2026-05-07 15:21 56.97226 12.22567 37144 ft 455 kts 172°
2026-05-07 15:21 56.92059 12.24354 37146 ft 455 kts 172°
2026-05-07 15:22 56.85840 12.26477 37149 ft 455 kts 172°
2026-05-07 15:22 56.79624 12.28620 37148 ft 455 kts 172°
2026-05-07 15:23 56.73408 12.30732 37145 ft 454 kts 171°
2026-05-07 15:23 56.67203 12.32838 37146 ft 453 kts 171°
2026-05-07 15:24 56.61003 12.34951 37156 ft 453 kts 171°
2026-05-07 15:24 56.54814 12.37042 37155 ft 453 kts 171°
2026-05-07 15:25 56.48619 12.39123 37144 ft 452 kts 171°
2026-05-07 15:25 56.42439 12.41206 37147 ft 452 kts 171°
2026-05-07 15:26 56.36264 12.43284 37143 ft 451 kts 171°
2026-05-07 15:26 56.30090 12.45313 37142 ft 451 kts 171°
2026-05-07 15:27 56.23967 12.47367 37148 ft 450 kts 171°
2026-05-07 15:27 56.17803 12.49402 37137 ft 450 kts 171°
2026-05-07 15:28 56.11647 12.51433 37144 ft 450 kts 171°
2026-05-07 15:28 56.05492 12.53464 37143 ft 450 kts 171°
2026-05-07 15:29 55.99344 12.55489 37143 ft 449 kts 171°
2026-05-07 15:29 55.93195 12.57487 37140 ft 449 kts 172°
2026-05-07 15:30 55.87052 12.59502 37148 ft 448 kts 171°
2026-05-07 15:30 55.80914 12.61491 37149 ft 448 kts 171°
2026-05-07 15:31 55.74776 12.63457 37161 ft 448 kts 171°
2026-05-07 15:31 55.68654 12.65448 37161 ft 448 kts 171°
2026-05-07 15:32 55.62525 12.67426 37160 ft 447 kts 171°
2026-05-07 15:32 55.56446 12.69391 37166 ft 447 kts 171°
2026-05-07 15:33 55.50328 12.71341 37133 ft 447 kts 171°
2026-05-07 15:33 55.44210 12.73284 37139 ft 447 kts 171°
2026-05-07 15:34 55.38096 12.75228 37133 ft 446 kts 171°
2026-05-07 15:34 55.31984 12.77170 37139 ft 446 kts 171°
2026-05-07 15:35 55.25868 12.79095 37130 ft 446 kts 171°
2026-05-07 15:35 55.19761 12.81009 37142 ft 446 kts 171°
2026-05-07 15:36 55.13656 12.82931 37142 ft 445 kts 171°
2026-05-07 15:36 55.07559 12.84853 37145 ft 445 kts 171°
2026-05-07 15:37 55.01462 12.86737 37140 ft 445 kts 171°
2026-05-07 15:37 54.95371 12.88639 37144 ft 445 kts 171°
2026-05-07 15:38 54.89282 12.90533 37146 ft 445 kts 171°
2026-05-07 15:38 54.83193 12.92408 37141 ft 444 kts 171°
2026-05-07 15:39 54.80206 12.93787 37127 ft 446 kts 155°
2026-05-07 15:39 54.77652 12.96813 37137 ft 449 kts 135°
2026-05-07 15:39 54.73461 13.04882 37141 ft 451 kts 134°
2026-05-07 15:40 54.69190 13.12829 37141 ft 451 kts 135°
2026-05-07 15:40 54.64897 13.20737 37139 ft 451 kts 135°
2026-05-07 15:41 54.60526 13.28523 37126 ft 451 kts 142°
2026-05-07 15:41 54.55216 13.34121 37132 ft 448 kts 155°
2026-05-07 15:42 54.49645 13.38901 36353 ft 443 kts 155°
2026-05-07 15:42 54.46887 13.41281 34779 ft 446 kts 154°
2026-05-07 15:42 54.44102 13.43701 33198 ft 448 kts 154°
2026-05-07 15:43 54.41348 13.46077 31899 ft 439 kts 154°
2026-05-07 15:43 54.38628 13.48421 30220 ft 438 kts 155°
2026-05-07 15:43 54.35892 13.50773 28356 ft 439 kts 155°
2026-05-07 15:43 54.33186 13.53089 27357 ft 432 kts 155°
2026-05-07 15:44 54.30497 13.55407 27007 ft 434 kts 155°
2026-05-07 15:44 54.27798 13.57734 26743 ft 434 kts 155°
2026-05-07 15:44 54.25136 13.60031 26483 ft 434 kts 152°
2026-05-07 15:44 54.22696 13.63129 26209 ft 428 kts 136°
2026-05-07 15:45 54.20908 13.66999 25957 ft 415 kts 125°
2026-05-07 15:45 54.19324 13.71037 25676 ft 403 kts 125°
2026-05-07 15:45 54.17765 13.74982 25187 ft 399 kts 125°
2026-05-07 15:45 54.16215 13.78889 24697 ft 396 kts 125°
2026-05-07 15:46 54.13142 13.86603 23720 ft 391 kts 125°
2026-05-07 15:46 54.11611 13.90418 23174 ft 388 kts 125°
2026-05-07 15:46 54.10096 13.94177 22701 ft 383 kts 124°
2026-05-07 15:47 54.08603 13.97895 22216 ft 378 kts 124°
2026-05-07 15:47 54.07133 14.01570 21741 ft 373 kts 125°
2026-05-07 15:47 54.05675 14.05186 21258 ft 368 kts 125°
2026-05-07 15:47 54.04238 14.08751 20794 ft 363 kts 124°
2026-05-07 15:48 54.02821 14.12274 20323 ft 359 kts 124°
2026-05-07 15:48 54.01421 14.15761 19862 ft 355 kts 124°
2026-05-07 15:48 54.00032 14.19195 19401 ft 351 kts 124°
2026-05-07 15:48 53.98652 14.22596 18936 ft 348 kts 124°
2026-05-07 15:49 53.97277 14.25976 18471 ft 346 kts 124°
2026-05-07 15:49 53.95916 14.29328 17957 ft 344 kts 124°
2026-05-07 15:49 53.94568 14.32646 17501 ft 339 kts 125°
2026-05-07 15:49 53.93232 14.35919 17046 ft 335 kts 125°
2026-05-07 15:50 53.91911 14.39160 16581 ft 332 kts 125°
2026-05-07 15:50 53.90601 14.42367 16199 ft 331 kts 125°
2026-05-07 15:50 53.89280 14.45589 15969 ft 332 kts 125°
2026-05-07 15:50 53.87945 14.48850 15054 ft 343 kts 125°
2026-05-07 15:51 53.86596 14.52152 14681 ft 336 kts 124°
2026-05-07 15:51 53.85275 14.55369 14274 ft 330 kts 124°
2026-05-07 15:51 53.83967 14.58544 13808 ft 327 kts 124°
2026-05-07 15:51 53.82672 14.61691 13334 ft 324 kts 124°
2026-05-07 15:52 53.81389 14.64796 12887 ft 320 kts 124°
2026-05-07 15:52 53.80116 14.67870 12604 ft 319 kts 124°
2026-05-07 15:52 53.78860 14.70901 12342 ft 318 kts 124°
2026-05-07 15:52 53.77605 14.73946 12005 ft 313 kts 124°
2026-05-07 15:53 53.76316 14.76895 11598 ft 311 kts 129°
2026-05-07 15:53 53.74911 14.79652 11161 ft 309 kts 130°
2026-05-07 15:53 53.73498 14.82383 10734 ft 308 kts 130°
2026-05-07 15:53 53.72097 14.85103 10308 ft 306 kts 130°
2026-05-07 15:54 53.70707 14.87814 9874 ft 305 kts 130°
2026-05-07 15:54 53.69321 14.90513 9425 ft 303 kts 130°
2026-05-07 15:54 53.68081 14.92933 9049 ft 300 kts 130°
2026-05-07 15:55 53.67126 14.94789 8756 ft 299 kts 130°
2026-05-07 15:55 53.65770 14.97420 8339 ft 296 kts 130°
2026-05-07 15:55 53.64421 15.00036 7935 ft 294 kts 129°
2026-05-07 15:55 53.63083 15.02633 7519 ft 293 kts 129°
2026-05-07 15:56 53.61749 15.05211 7109 ft 291 kts 129°
2026-05-07 15:56 53.60419 15.07774 6694 ft 290 kts 129°
2026-05-07 15:56 53.59096 15.10322 6234 ft 289 kts 129°
2026-05-07 15:56 53.57771 15.12869 5772 ft 288 kts 128°
2026-05-07 15:57 53.56461 15.15397 5387 ft 285 kts 128°
2026-05-07 15:57 53.55169 15.17896 4984 ft 282 kts 128°
2026-05-07 15:57 53.53889 15.20369 4569 ft 276 kts 128°
2026-05-07 15:57 53.52536 15.22571 4079 ft 271 kts 145°
2026-05-07 15:58 53.50779 15.23551 3721 ft 264 kts 175°
2026-05-07 15:58 53.49018 15.23013 3484 ft 255 kts 205°
2026-05-07 15:58 53.47694 15.21222 3286 ft 241 kts 234°
2026-05-07 15:58 53.47023 15.18730 3096 ft 232 kts 262°
2026-05-07 15:59 53.46981 15.16157 2943 ft 218 kts 276°
2026-05-07 15:59 53.47227 15.13708 2750 ft 209 kts 290°
2026-05-07 15:59 53.47756 15.11484 2614 ft 203 kts 302°
2026-05-07 15:59 53.48507 15.09513 2602 ft 199 kts 312°
2026-05-07 16:00 53.49392 15.07742 2598 ft 198 kts 315°
2026-05-07 16:00 53.50303 15.06005 2444 ft 197 kts 315°
2026-05-07 16:00 53.51180 15.04321 2220 ft 184 kts 315°
2026-05-07 16:00 53.51984 15.02768 1950 ft 169 kts 315°
2026-05-07 16:01 53.52725 15.01335 1737 ft 157 kts 316°
2026-05-07 16:01 53.53420 14.99994 1528 ft 148 kts 316°
2026-05-07 16:01 53.54082 14.98716 1327 ft 143 kts 316°
2026-05-07 16:01 53.54729 14.97469 1129 ft 141 kts 316°
2026-05-07 16:02 53.55367 14.96236 926 ft 139 kts 315°
2026-05-07 16:02 53.55997 14.95018 734 ft 137 kts 315°
2026-05-07 16:02 53.56624 14.93805 535 ft 138 kts 315°
2026-05-07 16:02 53.57257 14.92587 358 ft 138 kts 315°
2026-05-07 16:03 53.57886 14.91362 177 ft 138 kts 314°
2026-05-07 16:03 53.58443 14.90284 145 ft 99 kts 311°
2026-05-07 16:03 53.58781 14.89629 140 ft 51 kts 311°
2026-05-07 16:03 53.58994 14.89215 143 ft 39 kts 310°
2026-05-07 16:04 53.59103 14.89164 142 ft 16 kts 39°
2026-05-07 16:04 53.59195 14.89303 142 ft 19 kts 46°
2026-05-07 16:04 53.59248 14.89398 142 ft 3 kts 46°